This is the latest recevied weather packets stored in our database for station/object AI5KP-13. If no packets are shown the sender has not sent any weather packets the latest 10 day(s).
| Time | Temp. | Humidity | Pressure | Rain* | Wind** | Luminosity | Snow |
|---|---|---|---|---|---|---|---|
| 1777406286 | 25° C | 75% | 1009.6 hPa | 0 mm | - | 238 W/m² | - |
| 1777405985 | 25.56° C | 73% | 1009.4 hPa | 0 mm | - | 268 W/m² | - |
| 1777405681 | 25.56° C | 73% | 1009.4 hPa | 0 mm | - | 372 W/m² | - |
| 1777405378 | 25.56° C | 73% | 1009.1 hPa | 0 mm | - | 363 W/m² | - |
| 1777405075 | 26.11° C | 75% | 1009.3 hPa | 0 mm | - | 270 W/m² | - |
| 1777404769 | 26.67° C | 74% | 1008.7 hPa | 0 mm | - | 587 W/m² | - |
| 1777404465 | 26.67° C | 74% | 1008.9 hPa | 0 mm | - | 565 W/m² | - |
| 1777404162 | 26.67° C | 76% | 1008.8 hPa | 0 mm | - | 772 W/m² | - |
| 1777403858 | 26.11° C | 76% | 1009.3 hPa | 0 mm | - | 734 W/m² | - |
| 1777403552 | 26.67° C | 72% | 1009.2 hPa | 0 mm | - | 714 W/m² | - |
| 1777403247 | 26.67° C | 77% | 1009.4 hPa | 0 mm | - | 737 W/m² | - |
| 1777402947 | 26.67° C | 75% | 1009.1 hPa | 0 mm | - | 753 W/m² | - |
| 1777402643 | 26.11° C | 79% | 1008.9 hPa | 0 mm | - | 811 W/m² | - |
| 1777402341 | 25.56° C | 79% | 1008.6 hPa | 0 mm | - | 837 W/m² | - |
| 1777402039 | 25.56° C | 80% | 1008.7 hPa | 0 mm | - | 829 W/m² | - |
| 1777401734 | 25.56° C | 79% | 1008.9 hPa | 0 mm | - | 887 W/m² | - |
| 1777401430 | 25° C | 78% | 1008.7 hPa | 0 mm | - | 230 W/m² | - |
| 1777401126 | 25° C | 80% | 1009 hPa | 0 mm | - | 795 W/m² | - |
| 1777400821 | 25° C | 81% | 1009.4 hPa | 0 mm | - | 601 W/m² | - |
| 1777400518 | 25° C | 83% | 1009.6 hPa | 0 mm | - | 786 W/m² | - |
| 1777400215 | 25° C | 83% | 1009.9 hPa | 0 mm | - | 454 W/m² | - |
| 1777399911 | 23.89° C | 83% | 1010 hPa | 0 mm | - | 752 W/m² | - |
| 1777399609 | 23.89° C | 85% | 1009.8 hPa | 0 mm | - | 786 W/m² | - |
| 1777399306 | 22.22° C | 87% | 1010.2 hPa | 0 mm | - | 868 W/m² | - |
| 1777399003 | 20.56° C | 92% | 1010.6 hPa | 0 mm | - | 243 W/m² | - |
* Rain latest hour (hover to see other rain measurements)
** Current wind speed in m/s (hover to see current wind gust speed)